Simultaneous Nadir Overpasses (SNOs) Predictions

Prediction of SNOs between NOAA-19 and NPP Satellite Orbit:

Table of predicted SNOs for the next 14.0 days since TLE Epoch: 6/3/2016
Index Date (NOAA-19) Time (NOAA-19) Lat,Lon (NOAA-19) SZA (NOAA-19 ) Date (NPP) Time (NPP) Lat,Lon (NPP) SZA (NPP ) Distance(km) Time Diff (sec)
1 06/06/2016 17:23:48 -81.00, 45.87 118.00 06/06/2016 17:24:52 -81.00, 45.72 118.01 2.78 64
2 06/06/2016 18:14:51 81.00,-146.92 62.01 06/06/2016 18:15:37 81.00,-146.87 61.98 1.11 46
3 06/06/2016 19:05:49 -81.00, 20.76 118.05 06/06/2016 19:06:21 -80.99, 20.67 118.06 1.74 32
4 06/06/2016 19:56:53 81.00,-172.40 62.00 06/06/2016 19:57:07 81.00,-172.29 61.98 2.18 14
5 06/06/2016 20:47:51 -81.00, -4.73 118.06 06/06/2016 20:47:51 -80.99, -4.75 118.06 0.70 0
6 06/06/2016
